Regional Weather Roundup
Issued by NWS

Home | Current Version | Previous Version | Graphics & Text | Print | Product List | Glossary On
Versions: 1 2 3 4 5 6 7 8 9 10 11 12 13 14 15 16 17 18 19 20 21 22 23 24 25 26 27 28 29 30 31 32 33 34 35 36 37 38 39 40 41 42 43 44 45 46 47 48 49 50
000
ASUS43 KLOT 291710
RWRIL

ILLINOIS REGIONAL WEATHER ROUNDUP
NATIONAL WEATHER SERVICE CHICAGO/ROMEOVILLE IL
1100 AM CST THU JAN 29 2015

NOTE: "FAIR" INDICATES FEW OR NO CLOUDS BELOW 12,000 FEET WITH NO
SIGNIFICANT WEATHER AND/OR OBSTRUCTIONS TO VISIBILITY.

* THESE STATIONS ARE NOT UNDER NWS QUALITY CONTROL. THEY ALSO MAY NOT
  REPORT WEATHER SUCH AS PRECIPITATION OR FOG.

ILZ001-002-007-009-015-016-024-291800-
NORTHWEST ILLINOIS

CITY           SKY/WX    TMP DP  RH WIND       PRES   REMARKS
MOLINE         CLOUDY    36  30  79 NW20G28   30.06R WCI  25
STERLING*      CLOUDY    36  28  75 NW16G24   30.01R WCI  26
SAVANNA*       CLOUDY    36  29  76 NW14G20   30.03R WCI  27
$$

ILZ003-004-008-010-011-017-018-291800-
NORTH CENTRAL ILLINOIS

CITY           SKY/WX    TMP DP  RH WIND       PRES   REMARKS
ROCKFORD       CLOUDY    34  26  72 NW14G25   29.98R WCI  25
FREEPORT*      CLOUDY    32  28  82 NW22      30.01R WCI  20
ROCHELLE*      CLOUDY    33  28  81 NW18G24   29.98R WCI  21
DE KALB*       CLOUDY    32  26  77 NW15G22   29.94R WCI  22
PERU*          CLOUDY    35  30  82 NW23G32   30.00R WCI  23
$$

ILZ005-006-012>014-019>023-291800-
NORTHEAST ILLINOIS

CITY           SKY/WX    TMP DP  RH WIND       PRES   REMARKS
CHICAGO-OHARE  CLOUDY    34  27  75 NW22G28   29.90R WCI  22
CHICAGO-MIDWAY CLOUDY    36  28  73 NW21G29   29.90R WCI  25
AURORA         CLOUDY    34  27  75 NW20G26   29.94R HAZE    WCI  23
LANSING*       CLOUDY    35  29  80 NW13G18   29.89R WCI  26
JOLIET*        CLOUDY    34  28  77 NW10G22   29.94R WCI  26
WAUKEGAN       CLOUDY    32  26  78 NW16G25   29.89R WCI  21
DUPAGE AIRPORT LGT RAIN  33  26  75 NW23G32   29.92R WCI  21
KANKAKEE*      CLOUDY    34  30  84 NW15G25   29.92R WCI  25
WHEELING       CLOUDY    33  26  75 NW20G28   29.92R WCI  21
MORRIS*        CLOUDY    34  30  85 NW15G21   29.94R WCI  24
ROMEOVILLE*    CLOUDY    34  28  77 NW18G24   29.92R WCI  23
NORTHERLY ISL    N/A     35  27  73 NW10        N/A  WCI  27
$$

LMZ740>746-291800-
SOUTHERN LAKE MICHIGAN

STATION/POSITION SKY/WX   TEMP    WIND        PRES    VSBY  WAVE
                          AIR SEA DIR/SP/G                  HT/PER
                          (F)     (DEG/KT/KT) (MB)    (MI)  (FT/S)
WAUKEGAN HARBOR            33     330/ 19/ 27   N/A
HARRISON CRIB              33     320/ 23/ 30   N/A
BURNHAM HARBOR             35     280/ 11/ 17   N/A
CALUMET HARBOR             35     290/ 12/ 22   N/A
MICHIGAN CITY              34     310/ 28/ 32   N/A
$$

ILZ025>027-034>036-040-047-049-050-058-095>099-291800-
WEST-CENTRAL ILLINOIS

CITY           SKY/WX    TMP DP  RH WIND       PRES   REMARKS
QUINCY         CLOUDY    38  31  76 NW20G29   30.14R WCI  28
GALESBURG*     CLOUDY    35  32  89 NW17G23   30.07R WCI  25
MACOMB*        CLOUDY    37  33  86 NW21G29   30.11R WCI  26
JACKSONVILLE*  CLOUDY    40  32  74 NW17G28   30.09R
PITTSFIELD*    CLOUDY    39  32  75 NW15G25   30.13R WCI  31
$$

ILZ028>032-037-038-041>044-048-051>054-059>061-291800-
CENTRAL ILLINOIS

CITY           SKY/WX    TMP DP  RH WIND       PRES   REMARKS
PONTIAC        CLOUDY    35  32  87 NW18      29.98R WCI  25
BLOOMINGTON    CLOUDY    35  30  82 NW21G29   30.00R WCI  24
DECATUR        CLOUDY    37  31  78 NW16G26   30.02R WCI  28
PEORIA         CLOUDY    38  29  70 NW14G25   30.04R WCI  30
LACON*         CLOUDY    35  29  79 NW15G24   30.01R WCI  25
LINCOLN*       CLOUDY    38  32  79 NW12G21   30.03R WCI  30
SPRINGFIELD    CLOUDY    38  30  73 NW21G29   30.06R WCI  28
TAYLORVILLE    CLOUDY    36  32  87 NW14G26   30.05R WCI  27
$$

ILZ033-039-045-046-055>057-062-063-291800-
EAST-CENTRAL ILLINOIS

CITY           SKY/WX    TMP DP  RH WIND       PRES   REMARKS
CHAMPAIGN      CLOUDY    35  31  85 NW20G29   29.98R FOG     WCI  24
DANVILLE*      CLOUDY    33  31  92 NW18G32   29.91R FOG     WCI  22
RANTOUL*       CLOUDY    36  33  88 NW20G28   29.95R FOG     WCI  25
MATTOON        CLOUDY    36  31  82 NW18G28   30.00R HAZE    WCI  26
PARIS*         CLOUDY    35  34  96 NW15G28   29.98R FOG     WCI  25
$$

ILZ079-100>102-291800-
SOUTHWEST ILLINOIS

CITY           SKY/WX    TMP DP  RH WIND       PRES   REMARKS
ALTON          CLOUDY    39  30  70 NW17G26   30.11R WCI  30
BELLEVILLE     CLOUDY    40  32  73 NW14G28   30.12R
CAHOKIA*       CLOUDY    40  32  73 NW21G32   30.14R
SPARTA*        CLOUDY    39  32  74 NW13G22   30.14R WCI  32
$$

ILZ064>066-069>071-074>076-080>082-084>086-088>090-092>094-291800-
SOUTH-CENTRAL ILLINOIS

CITY           SKY/WX    TMP DP  RH WIND       PRES   REMARKS
CARBONDALE     CLOUDY    42  31  64 NW20G25   30.13R
CAIRO*         CLOUDY    51  38  61 N18       30.11R
EFFINGHAM*     CLOUDY    38  30  72 W15G23    30.06R WCI  30
MARION         CLOUDY    43  34  70 NW14G20   30.12R
MT. VERNON     CLOUDY    39  30  70 W8        30.10R WCI  34
CENTRALIA*     CLOUDY    39  32  75 NW23G30   30.09R WCI  29
SALEM*         CLOUDY    41  34  76 NW16G25   30.08R
METROPOLIS*    CLOUDY    50  39  67 NW14G23   30.08R
$$

ILZ067-068-072-073-078-083-087-091-291800-
SOUTHEAST ILLINOIS

CITY           SKY/WX    TMP DP  RH WIND       PRES   REMARKS
LAWRENCEVILLE  CLOUDY    40  34  79 NW20      30.03R HAZE
FLORA*         CLOUDY    39  33  78 NW16G28   30.07R WCI  30
FAIRFIELD*     CLOUDY    41  34  76 W8G20     30.07R
HARRISBURG*    CLOUDY    43  35  74 NW20G28   30.11R
ROBINSON*      CLOUDY    38  34  85 NW24      30.02R WCI  27
CARMI*         CLOUDY    44  38  78 W22G30    30.07R
$$

ABBREVIATIONS USED IN REMARKS
   TC - TEMPERATURE IN CELSIUS
  WCI - WIND CHILL INDEX
   HX - HEAT INDEX
  VSB - VISIBILITY
$$



USA.gov is the U.S. government's official web portal to all federal, state and local government web resources and services.